[[{"header":{"parameterUnit":"m.s-1","parameterCategory":1,"la1":30.2992,"la2":30.254,"lo1":-89.0895,"lo2":-89.0443,"dy":0.0025,"dx":0.0025,"nx":19,"ny":19,"refTime":"2026-04-01T03:00:00:Z","depth":0,"parameterNumber":2,"parameterNumberName":"U-component_of_WINDS"},"data":[0,0,0,-3.839,-3.8391,-3.8437,-3.8437,-3.8512,-3.8512,0,0,0,0,0,0,0,0,0,0,0,-3.8386,-3.8387,-3.839,-3.8391,-3.8437,-3.8437,-3.8511,-3.8512,0,0,0,0,0,0,0,0,0,0,0,-3.8386,-3.8387,-3.8388,-3.8392,-3.8437,-3.8437,-3.8511,-3.8471,0,0,0,0,0,0,0,0,0,0,-3.8424,-3.843,-3.8387,-3.8388,-3.8392,-3.8436,-3.8437,-3.8469,-3.8474,-3.8498,0,-3.8523,0,-3.8519,-3.8519,-3.8519,0,0,0,-3.8384,-3.8426,-3.843,-3.8388,-3.8392,-3.8436,-3.8414,-3.8471,-3.8477,-3.8505,-3.8523,-3.8526,-3.852,-3.8519,-3.852,-3.8686,-3.8687,0,0,-3.8381,-3.84,-3.8426,-3.8434,-3.8428,-3.8413,-3.8416,-3.8474,-3.8496,-3.8524,-3.8527,-3.8521,-3.852,-3.852,-3.8685,-3.8686,0,0,0,-3.8379,-3.8398,-3.84,-3.8431,-3.8438,-3.8414,-3.8417,-3.8493,-3.8492,-3.8528,-3.8522,-3.852,-3.8521,-3.8684,-3.8685,-3.8758,0,0,0,-3.8377,-3.8397,-3.8399,-3.8411,-3.8437,-3.8466,-3.8436,-3.8488,-3.8494,-3.8522,-3.852,-3.8522,-3.8682,-3.8685,-3.8753,-3.8788,0,0,0,-3.838,-3.8397,-3.8407,-3.8412,-3.8432,-3.8465,-3.8467,-3.8489,-3.8491,-3.8519,-3.8523,-3.8681,-3.8684,-3.8749,-3.8781,-3.8837,0,0,0,-3.8388,-3.8471,-3.8409,-3.8499,-3.8432,-3.851,-3.8466,-3.8524,-3.8556,-3.8521,-3.8683,-3.8685,-3.8747,-3.8777,-3.8832,-3.8886,-3.891,0,0,-3.8503,-3.8485,-3.8537,-3.8483,-3.8576,-3.8501,-3.8606,-3.8618,-3.8604,-3.866,-3.8664,-3.8755,-3.8781,-3.8836,-3.9042,-3.9061,0,0,0,-3.858,-3.8617,-3.8638,-3.867,-3.8682,-3.8695,-3.8689,-3.8694,-3.874,-3.8636,-3.879,-3.8805,-3.8836,-3.8861,-3.8877,-3.8903,-3.8698,-3.8697,-3.8697,-3.8767,-3.8745,-3.8829,-3.8813,-3.8845,-3.8839,-3.8863,-3.8869,-3.8837,-3.8874,-3.889,-3.9017,-3.9047,-3.9059,-3.9086,-3.8917,-3.8918,-3.8918,-3.8918,-3.8931,-3.898,-3.8938,-3.9004,-3.8981,-3.9037,-3.9036,-3.9012,-3.906,-3.9004,-3.903,-3.8969,-3.9081,-3.9103,-3.8923,-3.8923,-3.8922,-3.8921,-3.8921,-3.905,-3.9069,-3.9075,-3.9119,-3.9156,-3.9138,-3.9187,-3.9164,-3.9144,-3.917,-3.9184,-3.9183,-3.9177,-3.9179,-3.9179,-3.918,-3.918,-3.918,-3.9181,-3.917,-3.9173,-3.9217,-3.9238,-3.9256,-3.9277,-3.9274,-3.9291,-3.9304,-3.9284,-3.9284,-3.9249,-3.9097,-3.9058,-3.9187,-3.9186,-3.9185,-3.9185,-3.9184,-3.9342,-3.93,-3.9367,-3.9385,-3.9408,-3.9447,-3.9418,-3.9456,-3.9467,-3.9492,-3.9452,-3.9344,-3.9324,-3.9311,-3.9278,-3.9457,-3.9457,-3.9457,-3.9457,-3.944,-3.9429,-3.9493,-3.9524,-3.9551,-3.9533,-3.961,-3.961,-3.9602,-3.9608,-3.958,-3.9536,-3.9523,-3.9511,-3.9493,-3.9463,-3.9684,-3.9684,-3.9685,-3.9544,-3.9535,-3.9604,-3.9596,-3.9613,-3.9629,-3.9701,-3.9738,-3.9721,-3.9693,-3.9612,-3.9603,-3.9531,-3.9509,-3.9477,-3.945,-3.9393,0,0]},{"header":{"parameterUnit":"m.s-1","parameterCategory":1,"la1":30.2992,"la2":30.254,"lo1":-89.0895,"lo2":-89.0443,"dy":0.0025,"dx":0.0025,"nx":19,"ny":19,"refTime":"2026-04-01T03:00:00:Z","depth":0,"parameterNumber":3,"parameterNumberName":"V-component_of_WINDS"},"data":[0,0,0,2.6718,2.6719,2.675,2.675,2.6777,2.6778,0,0,0,0,0,0,0,0,0,0,0,2.6702,2.6702,2.6718,2.6719,2.675,2.675,2.6777,2.6778,0,0,0,0,0,0,0,0,0,0,0,2.6702,2.6702,2.6702,2.6719,2.675,2.6751,2.6777,2.6758,0,0,0,0,0,0,0,0,0,0,2.6729,2.6707,2.6702,2.6702,2.6719,2.675,2.6751,2.6757,2.6759,2.6758,0,2.6756,0,2.6767,2.6779,2.6779,0,0,0,2.6723,2.6706,2.6721,2.6702,2.6719,2.675,2.6737,2.6758,2.6761,2.676,2.6756,2.6758,2.6768,2.6779,2.6779,2.6761,2.6761,0,0,2.6722,2.6703,2.672,2.6722,2.6718,2.6736,2.6738,2.676,2.6753,2.6756,2.6758,2.6768,2.6779,2.6779,2.6761,2.6761,0,0,0,2.6713,2.6701,2.6717,2.6721,2.6728,2.6737,2.6739,2.6753,2.6759,2.6759,2.6769,2.6779,2.6779,2.6762,2.6761,2.6729,0,0,0,2.6713,2.6697,2.6715,2.6704,2.6727,2.6741,2.6731,2.6758,2.6761,2.6768,2.6779,2.6779,2.6762,2.6761,2.6731,2.6716,0,0,0,2.6702,2.6695,2.6698,2.6703,2.6716,2.6741,2.6749,2.6759,2.6766,2.6779,2.6779,2.6762,2.6762,2.6732,2.6718,2.6706,0,0,0,2.6684,2.6666,2.6697,2.6681,2.6716,2.6722,2.6749,2.6753,2.676,2.6779,2.6762,2.6761,2.6733,2.672,2.6708,2.6692,2.6685,0,0,2.665,2.6661,2.6654,2.6682,2.6678,2.6718,2.6709,2.6731,2.6749,2.6756,2.6756,2.673,2.6718,2.6707,2.6649,2.6643,0,0,0,2.6636,2.6631,2.6634,2.6641,2.666,2.6676,2.6703,2.6712,2.672,2.6749,2.6724,2.6717,2.6711,2.6705,2.6699,2.6695,2.6758,2.6758,2.6758,2.6559,2.6586,2.6575,2.6607,2.6614,2.6644,2.6652,2.667,2.6691,2.6685,2.6686,2.6649,2.664,2.6636,2.6632,2.6682,2.6682,2.6682,2.6681,2.6512,2.6508,2.6543,2.6545,2.6574,2.6575,2.6605,2.6622,2.6627,2.6649,2.6645,2.6665,2.6629,2.6626,2.6679,2.668,2.668,2.668,2.668,2.6463,2.6466,2.648,2.6496,2.6506,2.6539,2.6544,2.6569,2.6593,2.6589,2.6594,2.6595,2.6598,2.659,2.659,2.659,2.659,2.659,2.659,2.6405,2.6423,2.6425,2.6448,2.6458,2.6475,2.6509,2.6519,2.6537,2.6555,2.6555,2.6578,2.6621,2.6631,2.6588,2.6588,2.6588,2.6588,2.6589,2.6344,2.6364,2.6366,2.6377,2.6408,2.6417,2.6452,2.6472,2.6484,2.6486,2.6512,2.654,2.6552,2.6556,2.6564,2.6506,2.6506,2.6506,2.6506,2.6302,2.6312,2.6323,2.6339,2.6358,2.6391,2.6394,2.6422,2.6453,2.6463,2.6476,2.649,2.6493,2.6502,2.6508,2.6516,2.6447,2.6447,2.6447,2.6266,2.628,2.6277,2.6311,2.6339,2.6362,2.6367,2.6383,2.6422,2.6445,2.6471,2.6474,2.6496,2.6502,2.6521,2.6529,2.6545,0,0]}]]